カタログに戻る

MEXSAT 3

運用中通信GEO
NORAD 39035·PAYLOAD·🇲🇽 Mexico

打ち上げ Dec 19, 2012 から Guiana Space Centre

Loading…

TLE

最新Source: Space-Track

元期: Sep 14, 2026, 13:15 UTC

1 39035U 12075B   26257.55243745 -.00000034  00000-0  00000-0 0  9990
2 39035   0.0194 148.8027 0001408  85.2847 203.5614  1.00272018  7945

AllMySatでMEXSAT 3をリアルタイム追跡

Download on the App Store